Hourly Data Report for July 19, 2005

TORONTO CITY
ONTARIO

43°40'00.000" N
79°24'00.000" W
112.50 m
6158355
71508
XTO

Download Data

Hourly Data (July 2005)
Hourly Data Report for July 19, 2005
TIME
LST
Temp Definition
°C
Dew Point Definition
°C
Rel Hum Definition
%
Precip. Amount Definition
mm

Wind Dir Definition
10's deg

Wind Spd Definition
km/h
Visibility Definition
km
Stn Press Definition
kPa
Hmdx Definition


Wind Chill Definition


Weather Definition


00:00 26.2 20.3 70   LegendMM LegendMM   99.64 34   LegendNANA
01:00 25.5 20.7 75   LegendMM LegendMM   99.63 34   LegendNANA
02:00 25.0 20.8 78   LegendMM LegendMM   99.63 33   LegendNANA
03:00 24.5 21.0 81   LegendMM LegendMM   99.61 33   LegendNANA
04:00 23.8 21.1 85   LegendMM LegendMM   99.66 32   LegendNANA
05:00 23.3 21.0 87   LegendMM LegendMM   99.74 32   LegendNANA
06:00 23.3 21.0 87   LegendMM LegendMM   99.80 32   LegendNANA
07:00 24.3 20.9 81   LegendMM LegendMM   99.86 33   LegendNANA
08:00 25.5 20.5 74   LegendMM LegendMM   99.91 33   LegendNANA
09:00 26.8 20.2 67   LegendMM LegendMM   99.93 35   LegendNANA
10:00 28.4 19.6 59   LegendMM LegendMM   99.94 36   LegendNANA
11:00 29.6 18.3 51   LegendMM LegendMM   99.95 36   LegendNANA
12:00 30.6 17.9 47   LegendMM LegendMM   99.92 37   LegendNANA
13:00 31.0 16.6 42   LegendMM LegendMM   99.92 36   LegendNANA
14:00 30.8 16.0 41   LegendMM LegendMM   99.92 35   LegendNANA
15:00 31.1 16.3 41   LegendMM LegendMM   99.94 36   LegendNANA
16:00 29.7 15.8 43   LegendMM LegendMM   99.96 34   LegendNANA
17:00 28.5 16.3 48   LegendMM LegendMM   100.00 33   LegendNANA
18:00 27.7 14.8 45   LegendMM LegendMM   100.05 32   LegendNANA
19:00 26.9 16.0 51   LegendMM LegendMM   100.10 32   LegendNANA
20:00 25.3 17.6 62   LegendMM LegendMM   100.16 31   LegendNANA
21:00 23.8 17.3 67   LegendMM LegendMM   100.25 29   LegendNANA
22:00 22.9 16.9 69   LegendMM LegendMM   100.31 28   LegendNANA
23:00 22.1 17.0 73   LegendMM LegendMM   100.33 27   LegendNANA

Notes on Data Quality.

Legend

  • E = Estimated
  • M = Missing
  • NA = Not Available*
  • [empty] = Indicates an unobserved value
Date modified: